Time,TemperatureF,DewpointF,PressureIn,WindDirection,WindDirectionDegrees,WindSpeedMPH,WindSpeedGustMPH,Humidity,HourlyPrecipIn,Conditions,Clouds,dailyrainin,SoftwareType,DateUTC
2013-02-28 00:02:00,18.6,17.4,30.12,East,90,1.0,1.0,95,0.00,,,0.00,Wunderground v.1.15,2013-02-28 04:02:00,
2013-02-28 00:07:00,18.5,17.1,30.12,NE,53,0.0,1.0,94,0.00,,,0.00,Wunderground v.1.15,2013-02-28 04:07:00,
2013-02-28 00:17:00,18.4,17.0,30.11,ENE,74,0.0,0.0,94,0.00,,,0.00,Wunderground v.1.15,2013-02-28 04:17:00,
2013-02-28 00:22:00,18.4,17.0,30.11,ENE,74,0.0,0.0,94,0.00,,,0.00,Wunderground v.1.15,2013-02-28 04:22:00,
2013-02-28 00:27:00,18.3,16.9,30.11,NE,47,0.0,1.0,94,0.00,,,0.00,Wunderground v.1.15,2013-02-28 04:27:00,
2013-02-28 00:32:00,18.2,16.8,30.10,East,86,1.0,1.0,94,0.00,,,0.00,Wunderground v.1.15,2013-02-28 04:32:00,
2013-02-28 00:37:00,18.2,16.8,30.10,East,92,1.0,1.0,94,0.00,,,0.00,Wunderground v.1.15,2013-02-28 04:37:00,
2013-02-28 00:42:00,18.2,16.8,30.10,ENE,74,1.0,1.0,94,0.00,,,0.00,Wunderground v.1.15,2013-02-28 04:42:00,
2013-02-28 00:52:00,18.1,16.7,30.10,ENE,64,1.0,2.0,94,0.00,,,0.00,Wunderground v.1.15,2013-02-28 04:52:00,
2013-02-28 00:57:00,18.0,16.6,30.10,East,85,1.0,1.0,94,0.00,,,0.00,Wunderground v.1.15,2013-02-28 04:57:00,
2013-02-28 01:02:00,18.0,16.6,30.10,NE,54,1.0,1.0,94,0.00,,,0.00,Wunderground v.1.15,2013-02-28 05:02:00,
2013-02-28 01:12:00,17.9,16.5,30.10,ESE,118,1.0,1.0,94,0.00,,,0.00,Wunderground v.1.15,2013-02-28 05:12:00,
2013-02-28 01:17:00,17.9,16.5,30.10,ESE,118,0.0,1.0,94,0.00,,,0.00,Wunderground v.1.15,2013-02-28 05:17:00,
2013-02-28 01:22:00,17.9,16.5,30.10,ESE,118,0.0,0.0,94,0.00,,,0.00,Wunderground v.1.15,2013-02-28 05:22:00,
2013-02-28 01:27:00,17.9,16.5,30.10,ESE,118,0.0,0.0,94,0.00,,,0.00,Wunderground v.1.15,2013-02-28 05:27:00,
2013-02-28 01:32:00,17.9,16.5,30.10,ESE,102,0.0,0.0,94,0.00,,,0.00,Wunderground v.1.15,2013-02-28 05:32:00,
2013-02-28 01:37:00,17.9,16.5,30.10,ESE,102,0.0,0.0,94,0.00,,,0.00,Wunderground v.1.15,2013-02-28 05:37:00,
2013-02-28 01:42:00,17.9,16.5,30.09,ESE,105,0.0,1.0,94,0.00,,,0.00,Wunderground v.1.15,2013-02-28 05:42:00,
2013-02-28 01:47:00,17.8,16.4,30.10,East,98,0.0,1.0,94,0.00,,,0.00,Wunderground v.1.15,2013-02-28 05:47:00,
2013-02-28 01:52:00,17.8,16.4,30.09,ENE,62,1.0,1.0,94,0.00,,,0.00,Wunderground v.1.15,2013-02-28 05:52:00,
2013-02-28 01:57:00,17.7,16.3,30.09,ESE,102,1.0,1.0,94,0.00,,,0.00,Wunderground v.1.15,2013-02-28 05:57:00,
2013-02-28 02:02:00,17.7,16.3,30.09,ESE,111,1.0,1.0,94,0.00,,,0.00,Wunderground v.1.15,2013-02-28 06:02:00,
2013-02-28 02:07:00,17.8,16.4,30.08,ENE,69,1.0,1.0,94,0.00,,,0.00,Wunderground v.1.15,2013-02-28 06:07:00,
2013-02-28 02:12:00,17.7,16.3,30.08,East,92,1.0,1.0,94,0.00,,,0.00,Wunderground v.1.15,2013-02-28 06:12:00,
2013-02-28 02:17:00,17.8,16.4,30.08,East,92,1.0,1.0,94,0.00,,,0.00,Wunderground v.1.15,2013-02-28 06:17:00,
2013-02-28 02:27:00,17.7,16.3,30.08,ENE,65,1.0,3.0,94,0.00,,,0.00,Wunderground v.1.15,2013-02-28 06:27:00,
2013-02-28 02:32:00,17.6,16.2,30.08,East,89,1.0,1.0,94,0.00,,,0.00,Wunderground v.1.15,2013-02-28 06:32:00,
2013-02-28 02:37:00,17.6,16.2,30.08,East,84,1.0,1.0,94,0.00,,,0.00,Wunderground v.1.15,2013-02-28 06:37:00,
2013-02-28 02:42:00,17.6,16.2,30.08,East,98,0.0,0.0,94,0.00,,,0.00,Wunderground v.1.15,2013-02-28 06:42:00,
2013-02-28 02:47:00,17.5,16.1,30.07,East,94,0.0,0.0,94,0.00,,,0.00,Wunderground v.1.15,2013-02-28 06:47:00,
2013-02-28 02:57:00,17.5,16.1,30.07,ENE,63,0.0,2.0,94,0.00,,,0.00,Wunderground v.1.15,2013-02-28 06:57:00,
2013-02-28 03:02:00,17.4,16.0,30.07,ENE,71,1.0,2.0,94,0.00,,,0.00,Wunderground v.1.15,2013-02-28 07:02:00,
2013-02-28 03:07:00,17.4,16.0,30.07,ENE,65,1.0,2.0,94,0.00,,,0.00,Wunderground v.1.15,2013-02-28 07:07:00,
2013-02-28 03:12:00,17.5,16.1,30.06,East,82,1.0,2.0,94,0.00,,,0.00,Wunderground v.1.15,2013-02-28 07:12:00,
2013-02-28 03:17:00,17.5,16.1,30.06,ESE,108,2.0,2.0,94,0.00,,,0.00,Wunderground v.1.15,2013-02-28 07:17:00,
2013-02-28 03:27:00,17.5,16.1,30.06,East,84,1.0,2.0,94,0.00,,,0.00,Wunderground v.1.15,2013-02-28 07:27:00,
2013-02-28 03:32:00,17.4,16.0,30.06,ESE,103,1.0,1.0,94,0.00,,,0.00,Wunderground v.1.15,2013-02-28 07:32:00,
2013-02-28 03:37:00,17.3,15.9,30.06,East,92,1.0,1.0,94,0.00,,,0.00,Wunderground v.1.15,2013-02-28 07:37:00,
2013-02-28 03:47:00,17.3,15.9,30.06,ENE,74,0.0,2.0,94,0.00,,,0.00,Wunderground v.1.15,2013-02-28 07:47:00,
2013-02-28 03:52:00,17.3,15.9,30.06,East,82,1.0,1.0,94,0.00,,,0.00,Wunderground v.1.15,2013-02-28 07:52:00,
2013-02-28 03:57:00,17.2,15.8,30.06,NE,49,1.0,3.0,94,0.00,,,0.00,Wunderground v.1.15,2013-02-28 07:57:00,
2013-02-28 04:02:00,17.2,15.8,30.05,ENE,76,1.0,1.0,94,0.00,,,0.00,Wunderground v.1.15,2013-02-28 08:02:00,
2013-02-28 04:07:00,17.2,15.8,30.05,ESE,107,1.0,1.0,94,0.00,,,0.00,Wunderground v.1.15,2013-02-28 08:07:00,
2013-02-28 04:12:00,17.2,15.8,30.05,East,94,1.0,1.0,94,0.00,,,0.00,Wunderground v.1.15,2013-02-28 08:12:00,
2013-02-28 04:17:00,17.1,15.7,30.05,East,97,1.0,1.0,94,0.00,,,0.00,Wunderground v.1.15,2013-02-28 08:17:00,
2013-02-28 04:27:00,17.1,15.4,30.05,East,92,1.0,1.0,93,0.00,,,0.00,Wunderground v.1.15,2013-02-28 08:27:00,
2013-02-28 04:32:00,17.0,15.3,30.05,ESE,103,2.0,2.0,93,0.00,,,0.00,Wunderground v.1.15,2013-02-28 08:32:00,
2013-02-28 04:37:00,16.9,15.2,30.05,East,80,1.0,2.0,93,0.00,,,0.00,Wunderground v.1.15,2013-02-28 08:37:00,
2013-02-28 04:47:00,16.7,15.0,30.04,ENE,63,1.0,3.0,93,0.00,,,0.00,Wunderground v.1.15,2013-02-28 08:47:00,
2013-02-28 04:52:00,16.6,14.9,30.04,ENE,69,2.0,2.0,93,0.00,,,0.00,Wunderground v.1.15,2013-02-28 08:52:00,
2013-02-28 04:57:00,16.5,14.8,30.04,ENE,67,2.0,2.0,93,0.00,,,0.00,Wunderground v.1.15,2013-02-28 08:57:00,
2013-02-28 05:02:00,16.5,14.8,30.04,East,94,1.0,1.0,93,0.00,,,0.00,Wunderground v.1.15,2013-02-28 09:02:00,
2013-02-28 05:07:00,16.4,14.7,30.04,ENE,70,1.0,1.0,93,0.00,,,0.00,Wunderground v.1.15,2013-02-28 09:07:00,
2013-02-28 05:12:00,16.4,14.7,30.04,ENE,71,1.0,2.0,93,0.00,,,0.00,Wunderground v.1.15,2013-02-28 09:12:00,
2013-02-28 05:17:00,16.3,14.6,30.04,ENE,75,1.0,2.0,93,0.00,,,0.00,Wunderground v.1.15,2013-02-28 09:17:00,
2013-02-28 05:22:00,16.3,14.6,30.04,ENE,70,1.0,1.0,93,0.00,,,0.00,Wunderground v.1.15,2013-02-28 09:22:00,
2013-02-28 05:27:00,16.3,14.6,30.04,East,83,1.0,1.0,93,0.00,,,0.00,Wunderground v.1.15,2013-02-28 09:27:00,
2013-02-28 05:32:00,16.3,14.6,30.03,ENE,67,1.0,1.0,93,0.00,,,0.00,Wunderground v.1.15,2013-02-28 09:32:00,
2013-02-28 05:37:00,16.3,14.6,30.03,ENE,58,1.0,1.0,93,0.00,,,0.00,Wunderground v.1.15,2013-02-28 09:37:00,
2013-02-28 05:42:00,16.3,14.6,30.03,ENE,71,1.0,3.0,93,0.00,,,0.00,Wunderground v.1.15,2013-02-28 09:42:00,
2013-02-28 05:47:00,16.2,14.5,30.03,ENE,62,1.0,3.0,93,0.00,,,0.00,Wunderground v.1.15,2013-02-28 09:47:00,
2013-02-28 05:52:00,16.2,14.5,30.03,ENE,62,1.0,2.0,93,0.00,,,0.00,Wunderground v.1.15,2013-02-28 09:52:00,
2013-02-28 05:57:00,16.2,14.5,30.03,ENE,77,1.0,2.0,93,0.00,,,0.00,Wunderground v.1.15,2013-02-28 09:57:00,
2013-02-28 06:02:00,16.2,14.5,30.04,ENE,78,1.0,1.0,93,0.00,,,0.00,Wunderground v.1.15,2013-02-28 10:02:00,
2013-02-28 06:07:00,16.2,14.5,30.03,NE,55,1.0,2.0,93,0.00,,,0.00,Wunderground v.1.15,2013-02-28 10:07:00,
2013-02-28 06:12:00,16.2,14.5,30.03,ENE,60,2.0,2.0,93,0.00,,,0.00,Wunderground v.1.15,2013-02-28 10:12:00,
2013-02-28 06:17:00,16.3,14.6,30.03,East,84,2.0,2.0,93,0.00,,,0.00,Wunderground v.1.15,2013-02-28 10:17:00,
2013-02-28 06:22:00,16.3,14.6,30.03,ESE,112,2.0,3.0,93,0.00,,,0.00,Wunderground v.1.15,2013-02-28 10:22:00,
2013-02-28 06:27:00,16.4,14.7,30.03,ENE,64,2.0,3.0,93,0.00,,,0.00,Wunderground v.1.15,2013-02-28 10:27:00,
2013-02-28 06:32:00,16.5,14.8,30.03,East,82,2.0,2.0,93,0.00,,,0.00,Wunderground v.1.15,2013-02-28 10:32:00,
2013-02-28 06:37:00,16.5,14.8,30.03,East,80,2.0,3.0,93,0.00,,,0.00,Wunderground v.1.15,2013-02-28 10:37:00,
2013-02-28 06:42:00,16.6,14.9,30.03,ENE,59,2.0,2.0,93,0.00,,,0.00,Wunderground v.1.15,2013-02-28 10:42:00,
2013-02-28 06:52:00,16.6,14.9,30.03,ENE,57,2.0,3.0,93,0.00,,,0.00,Wunderground v.1.15,2013-02-28 10:52:00,
2013-02-28 06:57:00,16.7,15.0,30.03,East,101,2.0,3.0,93,0.00,,,0.00,Wunderground v.1.15,2013-02-28 10:57:00,
2013-02-28 07:02:00,16.8,15.1,30.03,ENE,71,1.0,1.0,93,0.00,,,0.00,Wunderground v.1.15,2013-02-28 11:02:00,
2013-02-28 07:07:00,16.8,15.1,30.03,ESE,111,2.0,2.0,93,0.00,,,0.00,Wunderground v.1.15,2013-02-28 11:07:00,
2013-02-28 07:12:00,16.9,15.2,30.03,ENE,74,2.0,2.0,93,0.00,,,0.00,Wunderground v.1.15,2013-02-28 11:12:00,
2013-02-28 07:17:00,16.9,15.2,30.03,ENE,76,2.0,2.0,93,0.00,,,0.00,Wunderground v.1.15,2013-02-28 11:17:00,
2013-02-28 07:22:00,17.0,15.3,30.03,ENE,57,3.0,3.0,93,0.00,,,0.00,Wunderground v.1.15,2013-02-28 11:22:00,
2013-02-28 07:27:00,17.1,15.4,30.02,East,86,2.0,3.0,93,0.00,,,0.00,Wunderground v.1.15,2013-02-28 11:27:00,
2013-02-28 07:32:00,17.2,15.8,30.03,ENE,57,2.0,3.0,94,0.00,,,0.00,Wunderground v.1.15,2013-02-28 11:32:00,
2013-02-28 07:37:00,17.3,15.9,30.03,ESE,108,2.0,3.0,94,0.00,,,0.00,Wunderground v.1.15,2013-02-28 11:37:00,
2013-02-28 07:42:00,17.5,16.1,30.03,East,94,2.0,2.0,94,0.00,,,0.00,Wunderground v.1.15,2013-02-28 11:42:00,
2013-02-28 07:52:00,17.7,16.0,30.02,East,98,2.0,2.0,93,0.00,,,0.00,Wunderground v.1.15,2013-02-28 11:52:00,
2013-02-28 07:57:00,18.0,16.6,30.02,ESE,106,1.0,2.0,94,0.00,,,0.00,Wunderground v.1.15,2013-02-28 11:57:00,
2013-02-28 08:02:00,18.1,16.7,30.02,East,87,1.0,1.0,94,0.00,,,0.00,Wunderground v.1.15,2013-02-28 12:02:00,
2013-02-28 08:07:00,18.3,16.9,30.02,East,83,2.0,2.0,94,0.00,,,0.00,Wunderground v.1.15,2013-02-28 12:07:00,
2013-02-28 08:12:00,18.5,17.1,30.02,East,89,1.0,1.0,94,0.00,,,0.00,Wunderground v.1.15,2013-02-28 12:12:00,
2013-02-28 08:22:00,18.8,17.4,30.02,ENE,78,2.0,2.0,94,0.00,,,0.00,Wunderground v.1.15,2013-02-28 12:22:00,
2013-02-28 08:27:00,19.0,17.6,30.02,NE,48,2.0,2.0,94,0.00,,,0.00,Wunderground v.1.15,2013-02-28 12:27:00,
2013-02-28 08:32:00,19.2,17.8,30.02,ENE,78,1.0,4.0,94,0.00,,,0.00,Wunderground v.1.15,2013-02-28 12:32:00,
2013-02-28 08:37:00,19.6,18.2,30.02,ENE,62,2.0,4.0,94,0.00,,,0.00,Wunderground v.1.15,2013-02-28 12:37:00,
2013-02-28 08:42:00,19.7,18.3,30.01,ENE,57,2.0,2.0,94,0.00,,,0.00,Wunderground v.1.15,2013-02-28 12:42:00,
2013-02-28 08:47:00,19.8,18.4,30.01,ENE,59,2.0,2.0,94,0.00,,,0.00,Wunderground v.1.15,2013-02-28 12:47:00,
2013-02-28 08:57:00,20.3,18.8,30.00,ENE,63,2.0,2.0,94,0.00,,,0.00,Wunderground v.1.15,2013-02-28 12:57:00,
2013-02-28 09:02:00,20.6,19.1,30.00,NE,49,2.0,2.0,94,0.00,,,0.00,Wunderground v.1.15,2013-02-28 13:02:00,
2013-02-28 09:07:00,20.9,19.4,30.00,NE,47,2.0,3.0,94,0.00,,,0.00,Wunderground v.1.15,2013-02-28 13:07:00,
2013-02-28 09:12:00,21.1,19.6,30.00,NE,53,2.0,2.0,94,0.00,,,0.00,Wunderground v.1.15,2013-02-28 13:12:00,
2013-02-28 09:17:00,21.4,19.9,30.00,ESE,113,3.0,3.0,94,0.00,,,0.00,Wunderground v.1.15,2013-02-28 13:17:00,
2013-02-28 09:22:00,21.5,20.0,30.00,East,83,3.0,3.0,94,0.00,,,0.00,Wunderground v.1.15,2013-02-28 13:22:00,
2013-02-28 09:27:00,21.7,20.2,30.00,ENE,58,3.0,3.0,94,0.00,,,0.00,Wunderground v.1.15,2013-02-28 13:27:00,
2013-02-28 09:32:00,22.0,20.5,30.00,ENE,65,2.0,2.0,94,0.00,,,0.00,Wunderground v.1.15,2013-02-28 13:32:00,
2013-02-28 09:37:00,22.3,20.8,30.00,ENE,75,2.0,3.0,94,0.00,,,0.00,Wunderground v.1.15,2013-02-28 13:37:00,
2013-02-28 09:42:00,22.7,21.2,30.00,NE,49,2.0,2.0,94,0.00,,,0.00,Wunderground v.1.15,2013-02-28 13:42:00,
2013-02-28 09:47:00,23.0,21.5,30.00,ENE,73,2.0,2.0,94,0.00,,,0.00,Wunderground v.1.15,2013-02-28 13:47:00,
2013-02-28 09:52:00,23.3,21.8,30.00,ESE,114,2.0,2.0,94,0.00,,,0.00,Wunderground v.1.15,2013-02-28 13:52:00,
2013-02-28 09:57:00,23.6,22.1,30.00,East,94,2.0,2.0,94,0.00,,,0.00,Wunderground v.1.15,2013-02-28 13:57:00,
2013-02-28 10:07:00,23.7,22.0,29.99,ENE,73,3.0,3.0,93,0.00,,,0.00,Wunderground v.1.15,2013-02-28 14:07:00,
2013-02-28 10:12:00,23.9,22.4,29.99,NE,49,3.0,3.0,94,0.00,,,0.00,Wunderground v.1.15,2013-02-28 14:12:00,
2013-02-28 10:17:00,24.4,22.9,29.99,ESE,107,2.0,3.0,94,0.00,,,0.00,Wunderground v.1.15,2013-02-28 14:17:00,
2013-02-28 10:22:00,24.6,23.1,29.99,NE,55,1.0,3.0,94,0.00,,,0.00,Wunderground v.1.15,2013-02-28 14:22:00,
2013-02-28 10:27:00,24.6,22.9,29.99,ENE,64,2.0,3.0,93,0.00,,,0.00,Wunderground v.1.15,2013-02-28 14:27:00,
2013-02-28 10:32:00,24.6,22.9,29.99,NE,55,3.0,4.0,93,0.00,,,0.00,Wunderground v.1.15,2013-02-28 14:32:00,
2013-02-28 10:37:00,24.7,23.0,29.99,ENE,58,3.0,4.0,93,0.00,,,0.00,Wunderground v.1.15,2013-02-28 14:37:00,
2013-02-28 10:42:00,24.8,23.1,29.99,ENE,58,2.0,3.0,93,0.00,,,0.00,Wunderground v.1.15,2013-02-28 14:42:00,
2013-02-28 10:52:00,25.1,23.4,29.98,ENE,63,3.0,4.0,93,0.00,,,0.00,Wunderground v.1.15,2013-02-28 14:52:00,
2013-02-28 10:57:00,25.3,23.6,29.98,East,98,2.0,4.0,93,0.00,,,0.00,Wunderground v.1.15,2013-02-28 14:57:00,
2013-02-28 11:02:00,25.4,23.7,29.98,East,80,2.0,2.0,93,0.00,,,0.00,Wunderground v.1.15,2013-02-28 15:02:00,
2013-02-28 11:07:00,25.8,24.1,29.98,NE,53,2.0,2.0,93,0.00,,,0.00,Wunderground v.1.15,2013-02-28 15:07:00,
2013-02-28 11:12:00,26.0,24.0,29.98,ENE,71,2.0,5.0,92,0.00,,,0.00,Wunderground v.1.15,2013-02-28 15:12:00,
2013-02-28 11:17:00,26.2,24.2,29.98,ENE,66,3.0,5.0,92,0.00,,,0.00,Wunderground v.1.15,2013-02-28 15:17:00,
2013-02-28 11:22:00,26.5,24.5,29.97,ENE,67,3.0,4.0,92,0.00,,,0.00,Wunderground v.1.15,2013-02-28 15:22:00,
2013-02-28 11:27:00,26.8,24.8,29.97,East,90,2.0,4.0,92,0.00,,,0.00,Wunderground v.1.15,2013-02-28 15:27:00,
2013-02-28 11:32:00,27.1,24.8,29.97,ENE,57,3.0,3.0,91,0.00,,,0.00,Wunderground v.1.15,2013-02-28 15:32:00,
2013-02-28 11:37:00,27.4,25.1,29.97,ENE,74,2.0,3.0,91,0.00,,,0.00,Wunderground v.1.15,2013-02-28 15:37:00,
2013-02-28 11:42:00,27.7,24.9,29.97,NE,34,2.0,2.0,89,0.00,,,0.00,Wunderground v.1.15,2013-02-28 15:42:00,
2013-02-28 11:47:00,27.9,24.8,29.97,SE,130,3.0,3.0,88,0.00,,,0.00,Wunderground v.1.15,2013-02-28 15:47:00,
2013-02-28 11:52:00,28.4,25.3,29.96,ENE,69,2.0,2.0,88,0.00,,,0.00,Wunderground v.1.15,2013-02-28 15:52:00,
2013-02-28 11:57:00,28.7,25.3,29.96,ENE,71,2.0,2.0,87,0.00,,,0.00,Wunderground v.1.15,2013-02-28 15:57:00,
2013-02-28 12:02:00,29.1,25.2,29.96,ENE,69,2.0,2.0,85,0.00,,,0.00,Wunderground v.1.15,2013-02-28 16:02:00,
2013-02-28 12:07:00,29.6,25.4,29.96,ENE,61,2.0,2.0,84,0.00,,,0.00,Wunderground v.1.15,2013-02-28 16:07:00,
2013-02-28 12:12:00,29.9,25.1,29.95,NE,54,3.0,4.0,82,0.00,,,0.00,Wunderground v.1.15,2013-02-28 16:12:00,
2013-02-28 12:17:00,30.3,25.5,29.95,ENE,63,4.0,8.0,82,0.00,,,0.00,Wunderground v.1.15,2013-02-28 16:17:00,
2013-02-28 12:27:00,30.9,25.5,29.94,NE,55,4.0,5.0,80,0.00,,,0.00,Wunderground v.1.15,2013-02-28 16:27:00,
2013-02-28 12:32:00,31.2,25.7,29.94,NE,45,4.0,4.0,80,0.00,,,0.00,Wunderground v.1.15,2013-02-28 16:32:00,
2013-02-28 12:37:00,31.4,25.6,29.94,NNE,30,3.0,5.0,79,0.00,,,0.00,Wunderground v.1.15,2013-02-28 16:37:00,
2013-02-28 12:42:00,31.9,25.5,29.94,East,82,3.0,5.0,77,0.00,,,0.00,Wunderground v.1.15,2013-02-28 16:42:00,
2013-02-28 12:52:00,32.7,25.3,29.93,ENE,76,4.0,4.0,74,0.00,,,0.00,Wunderground v.1.15,2013-02-28 16:52:00,
2013-02-28 12:57:00,33.4,25.3,29.93,East,90,4.0,4.0,72,0.00,,,0.00,Wunderground v.1.15,2013-02-28 16:57:00,
2013-02-28 13:07:00,34.7,25.6,29.93,ENE,75,3.0,3.0,69,0.00,,,0.00,Wunderground v.1.15,2013-02-28 17:07:00,
2013-02-28 13:12:00,35.6,25.4,29.93,East,87,2.0,5.0,66,0.00,,,0.00,Wunderground v.1.15,2013-02-28 17:12:00,
2013-02-28 13:17:00,35.9,25.3,29.93,ENE,67,2.0,5.0,65,0.00,,,0.00,Wunderground v.1.15,2013-02-28 17:17:00,
2013-02-28 13:22:00,35.5,24.1,29.92,NE,49,4.0,4.0,63,0.00,,,0.00,Wunderground v.1.15,2013-02-28 17:22:00,
2013-02-28 13:27:00,35.6,24.2,29.92,NE,39,5.0,6.0,63,0.00,,,0.00,Wunderground v.1.15,2013-02-28 17:27:00,
2013-02-28 13:32:00,36.3,24.5,29.92,ENE,70,3.0,3.0,62,0.00,,,0.00,Wunderground v.1.15,2013-02-28 17:32:00,
2013-02-28 13:37:00,36.9,23.9,29.91,ENE,74,3.0,3.0,59,0.00,,,0.00,Wunderground v.1.15,2013-02-28 17:37:00,
2013-02-28 13:42:00,36.9,23.1,29.91,East,82,3.0,3.0,57,0.00,,,0.00,Wunderground v.1.15,2013-02-28 17:42:00,
2013-02-28 13:47:00,37.0,23.2,29.91,NE,43,3.0,3.0,57,0.00,,,0.00,Wunderground v.1.15,2013-02-28 17:47:00,
2013-02-28 13:52:00,37.3,22.6,29.90,ENE,63,3.0,3.0,55,0.00,,,0.00,Wunderground v.1.15,2013-02-28 17:52:00,
2013-02-28 13:57:00,37.8,21.3,29.91,East,81,3.0,3.0,51,0.00,,,0.00,Wunderground v.1.15,2013-02-28 17:57:00,
2013-02-28 14:02:00,38.1,21.1,29.90,SSE,153,3.0,3.0,50,0.00,,,0.00,Wunderground v.1.15,2013-02-28 18:02:00,
2013-02-28 14:07:00,38.4,20.4,29.90,East,98,4.0,5.0,48,0.00,,,0.00,Wunderground v.1.15,2013-02-28 18:07:00,
2013-02-28 14:12:00,38.5,21.0,29.90,East,101,4.0,4.0,49,0.00,,,0.00,Wunderground v.1.15,2013-02-28 18:12:00,
2013-02-28 14:17:00,38.8,20.8,29.90,East,80,3.0,4.0,48,0.00,,,0.00,Wunderground v.1.15,2013-02-28 18:17:00,
2013-02-28 14:22:00,39.1,21.5,29.90,ESE,107,2.0,2.0,49,0.00,,,0.00,Wunderground v.1.15,2013-02-28 18:22:00,
2013-02-28 14:32:00,38.9,19.3,29.90,SSE,152,3.0,5.0,45,0.00,,,0.00,Wunderground v.1.15,2013-02-28 18:32:00,
2013-02-28 14:37:00,38.5,19.5,29.90,East,99,4.0,6.0,46,0.00,,,0.00,Wunderground v.1.15,2013-02-28 18:37:00,
2013-02-28 14:42:00,38.4,19.4,29.90,SE,129,5.0,5.0,46,0.00,,,0.00,Wunderground v.1.15,2013-02-28 18:42:00,
2013-02-28 14:52:00,38.3,19.3,29.89,South,169,4.0,4.0,46,0.00,,,0.00,Wunderground v.1.15,2013-02-28 18:52:00,
2013-02-28 14:57:00,38.4,19.9,29.89,ESE,109,3.0,4.0,47,0.00,,,0.00,Wunderground v.1.15,2013-02-28 18:57:00,
2013-02-28 15:02:00,38.4,18.9,29.89,SSE,167,3.0,3.0,45,0.00,,,0.00,Wunderground v.1.15,2013-02-28 19:02:00,
2013-02-28 15:07:00,38.6,19.1,29.89,East,86,4.0,4.0,45,0.00,,,0.00,Wunderground v.1.15,2013-02-28 19:07:00,
2013-02-28 15:12:00,38.6,19.6,29.89,SE,124,3.0,3.0,46,0.00,,,0.00,Wunderground v.1.15,2013-02-28 19:12:00,
2013-02-28 15:17:00,38.6,19.1,29.88,SE,128,3.0,3.0,45,0.00,,,0.00,Wunderground v.1.15,2013-02-28 19:17:00,
2013-02-28 15:22:00,38.6,19.6,29.88,ENE,77,4.0,4.0,46,0.00,,,0.00,Wunderground v.1.15,2013-02-28 19:22:00,
2013-02-28 15:27:00,38.8,18.7,29.88,East,94,4.0,5.0,44,0.00,,,0.00,Wunderground v.1.15,2013-02-28 19:27:00,
2013-02-28 15:32:00,38.8,19.2,29.88,East,83,4.0,6.0,45,0.00,,,0.00,Wunderground v.1.15,2013-02-28 19:32:00,
2013-02-28 15:37:00,38.8,19.2,29.87,ESE,105,4.0,7.0,45,0.00,,,0.00,Wunderground v.1.15,2013-02-28 19:37:00,
2013-02-28 15:42:00,39.1,19.5,29.87,East,89,4.0,4.0,45,0.00,,,0.00,Wunderground v.1.15,2013-02-28 19:42:00,
2013-02-28 15:47:00,39.2,18.5,29.87,ESE,117,4.0,4.0,43,0.00,,,0.00,Wunderground v.1.15,2013-02-28 19:47:00,
2013-02-28 15:52:00,39.4,19.8,29.87,East,86,4.0,4.0,45,0.00,,,0.00,Wunderground v.1.15,2013-02-28 19:52:00,
2013-02-28 15:57:00,39.4,19.8,29.87,East,90,3.0,4.0,45,0.00,,,0.00,Wunderground v.1.15,2013-02-28 19:57:00,
2013-02-28 16:07:00,39.9,20.3,29.86,ESE,108,3.0,3.0,45,0.00,,,0.00,Wunderground v.1.15,2013-02-28 20:07:00,
2013-02-28 16:12:00,40.0,19.8,29.86,ENE,75,3.0,3.0,44,0.00,,,0.00,Wunderground v.1.15,2013-02-28 20:12:00,
2013-02-28 16:22:00,38.8,19.2,29.86,East,89,3.0,5.0,45,0.00,,,0.00,Wunderground v.1.15,2013-02-28 20:22:00,
2013-02-28 16:27:00,38.3,19.3,29.86,East,82,3.0,5.0,46,0.00,,,0.00,Wunderground v.1.15,2013-02-28 20:27:00,
2013-02-28 16:32:00,38.2,19.2,29.86,SE,129,4.0,4.0,46,0.00,,,0.00,Wunderground v.1.15,2013-02-28 20:32:00,
2013-02-28 16:37:00,38.1,19.1,29.85,ESE,109,4.0,4.0,46,0.00,,,0.00,Wunderground v.1.15,2013-02-28 20:37:00,
2013-02-28 16:42:00,37.9,19.4,29.85,ENE,71,3.0,8.0,47,0.00,,,0.00,Wunderground v.1.15,2013-02-28 20:42:00,
2013-02-28 16:52:00,36.1,24.7,29.85,ENE,78,3.0,3.0,63,0.00,,,0.00,Wunderground v.1.15,2013-02-28 20:52:00,
2013-02-28 16:57:00,35.5,25.6,29.86,ENE,74,2.0,3.0,67,0.00,,,0.00,Wunderground v.1.15,2013-02-28 20:57:00,
2013-02-28 17:02:00,35.2,25.7,29.85,NE,52,2.0,2.0,68,0.00,,,0.00,Wunderground v.1.15,2013-02-28 21:02:00,
2013-02-28 17:07:00,34.8,26.4,29.85,ENE,57,2.0,2.0,71,0.00,,,0.00,Wunderground v.1.15,2013-02-28 21:07:00,
2013-02-28 17:17:00,34.1,26.7,29.85,NNE,22,1.0,3.0,74,0.00,,,0.00,Wunderground v.1.15,2013-02-28 21:17:00,
2013-02-28 17:27:00,33.5,26.4,29.85,NNE,21,2.0,4.0,75,0.00,,,0.00,Wunderground v.1.15,2013-02-28 21:27:00,
2013-02-28 17:32:00,33.2,26.5,29.85,NE,36,2.0,2.0,76,0.00,,,0.00,Wunderground v.1.15,2013-02-28 21:32:00,
2013-02-28 17:37:00,33.0,26.3,29.85,NE,50,2.0,2.0,76,0.00,,,0.00,Wunderground v.1.15,2013-02-28 21:37:00,
2013-02-28 17:47:00,32.4,26.0,29.84,NE,55,2.0,5.0,77,0.00,,,0.00,Wunderground v.1.15,2013-02-28 21:47:00,
2013-02-28 17:52:00,32.3,26.2,29.84,ENE,57,2.0,3.0,78,0.00,,,0.00,Wunderground v.1.15,2013-02-28 21:52:00,
2013-02-28 17:57:00,32.2,26.1,29.83,East,81,3.0,5.0,78,0.00,,,0.00,Wunderground v.1.15,2013-02-28 21:57:00,
2013-02-28 18:02:00,32.2,26.1,29.83,NE,55,3.0,6.0,78,0.00,,,0.00,Wunderground v.1.15,2013-02-28 22:02:00,
2013-02-28 18:07:00,32.1,26.0,29.83,ESE,107,4.0,6.0,78,0.00,,,0.00,Wunderground v.1.15,2013-02-28 22:07:00,
2013-02-28 18:12:00,32.0,25.9,29.82,NE,53,3.0,3.0,78,0.00,,,0.00,Wunderground v.1.15,2013-02-28 22:12:00,
2013-02-28 18:22:00,31.9,25.8,29.82,NE,34,3.0,3.0,78,0.00,,,0.00,Wunderground v.1.15,2013-02-28 22:22:00,
2013-02-28 18:32:00,31.5,25.4,29.82,ENE,67,2.0,2.0,78,0.00,,,0.00,Wunderground v.1.15,2013-02-28 22:32:00,
2013-02-28 18:37:00,31.2,25.1,29.82,ENE,70,2.0,2.0,78,0.00,,,0.00,Wunderground v.1.15,2013-02-28 22:37:00,
2013-02-28 18:42:00,30.7,25.0,29.82,NE,38,2.0,4.0,79,0.00,,,0.00,Wunderground v.1.15,2013-02-28 22:42:00,
2013-02-28 18:47:00,30.2,25.1,29.82,ENE,61,3.0,4.0,81,0.00,,,0.00,Wunderground v.1.15,2013-02-28 22:47:00,
2013-02-28 18:57:00,29.6,25.1,29.82,NE,36,3.0,4.0,83,0.00,,,0.00,Wunderground v.1.15,2013-02-28 22:57:00,
2013-02-28 19:02:00,29.4,24.9,29.81,ENE,72,2.0,5.0,83,0.00,,,0.00,Wunderground v.1.15,2013-02-28 23:02:00,
2013-02-28 19:07:00,29.3,25.1,29.81,ENE,62,2.0,5.0,84,0.00,,,0.00,Wunderground v.1.15,2013-02-28 23:07:00,
2013-02-28 19:12:00,29.3,25.1,29.81,NE,48,2.0,2.0,84,0.00,,,0.00,Wunderground v.1.15,2013-02-28 23:12:00,
2013-02-28 19:22:00,29.3,25.1,29.81,NE,45,3.0,3.0,84,0.00,,,0.00,Wunderground v.1.15,2013-02-28 23:22:00,
2013-02-28 19:27:00,29.4,25.2,29.80,NE,42,3.0,3.0,84,0.00,,,0.00,Wunderground v.1.15,2013-02-28 23:27:00,
2013-02-28 19:37:00,29.3,25.4,29.81,NE,34,2.0,2.0,85,0.00,,,0.00,Wunderground v.1.15,2013-02-28 23:37:00,
2013-02-28 19:42:00,29.2,25.3,29.81,NE,43,2.0,2.0,85,0.00,,,0.00,Wunderground v.1.15,2013-02-28 23:42:00,
2013-02-28 19:47:00,29.3,25.4,29.81,NE,49,2.0,7.0,85,0.00,,,0.00,Wunderground v.1.15,2013-02-28 23:47:00,
2013-02-28 19:52:00,29.4,25.4,29.81,ENE,59,3.0,3.0,85,0.00,,,0.00,Wunderground v.1.15,2013-02-28 23:52:00,
2013-02-28 19:57:00,29.3,25.4,29.81,NE,43,3.0,4.0,85,0.00,,,0.00,Wunderground v.1.15,2013-02-28 23:57:00,
2013-02-28 20:02:00,29.2,25.3,29.81,ENE,74,3.0,3.0,85,0.00,,,0.00,Wunderground v.1.15,2013-03-01 00:02:00,
2013-02-28 20:07:00,29.2,25.3,29.81,ENE,58,3.0,5.0,85,0.00,,,0.00,Wunderground v.1.15,2013-03-01 00:07:00,
2013-02-28 20:12:00,29.3,25.1,29.80,ENE,57,4.0,4.0,84,0.00,,,0.00,Wunderground v.1.15,2013-03-01 00:12:00,
2013-02-28 20:17:00,29.4,25.2,29.80,ENE,57,4.0,5.0,84,0.00,,,0.00,Wunderground v.1.15,2013-03-01 00:17:00,
2013-02-28 20:22:00,29.4,25.2,29.80,East,81,4.0,5.0,84,0.00,,,0.00,Wunderground v.1.15,2013-03-01 00:22:00,
2013-02-28 20:27:00,29.4,25.2,29.79,ENE,58,4.0,5.0,84,0.00,,,0.00,Wunderground v.1.15,2013-03-01 00:27:00,
2013-02-28 20:32:00,29.4,25.4,29.79,NE,52,5.0,5.0,85,0.00,,,0.00,Wunderground v.1.15,2013-03-01 00:32:00,
2013-02-28 20:42:00,29.4,25.2,29.79,NE,47,5.0,5.0,84,0.00,,,0.00,Wunderground v.1.15,2013-03-01 00:42:00,
2013-02-28 20:47:00,29.5,25.3,29.79,ESE,117,5.0,5.0,84,0.00,,,0.00,Wunderground v.1.15,2013-03-01 00:47:00,
2013-02-28 20:52:00,29.8,25.3,29.79,NE,55,5.0,5.0,83,0.00,,,0.00,Wunderground v.1.15,2013-03-01 00:52:00,
2013-02-28 20:57:00,30.1,25.3,29.79,ENE,63,4.0,5.0,82,0.00,,,0.00,Wunderground v.1.15,2013-03-01 00:57:00,
2013-02-28 21:02:00,29.9,25.1,29.79,ENE,63,4.0,4.0,82,0.00,,,0.00,Wunderground v.1.15,2013-03-01 01:02:00,
2013-02-28 21:07:00,29.8,25.3,29.79,East,86,2.0,4.0,83,0.00,,,0.00,Wunderground v.1.15,2013-03-01 01:07:00,
2013-02-28 21:12:00,29.6,25.1,29.79,East,84,2.0,2.0,83,0.00,,,0.00,Wunderground v.1.15,2013-03-01 01:12:00,
2013-02-28 21:17:00,29.5,25.0,29.79,NE,39,2.0,3.0,83,0.00,,,0.00,Wunderground v.1.15,2013-03-01 01:17:00,
2013-02-28 21:22:00,29.4,25.2,29.79,NNE,14,2.0,3.0,84,0.00,,,0.00,Wunderground v.1.15,2013-03-01 01:22:00,
2013-02-28 21:27:00,29.2,25.0,29.78,NNE,17,2.0,3.0,84,0.00,,,0.00,Wunderground v.1.15,2013-03-01 01:27:00,
2013-02-28 21:32:00,29.2,25.0,29.78,ENE,74,2.0,3.0,84,0.00,,,0.00,Wunderground v.1.15,2013-03-01 01:32:00,
2013-02-28 21:37:00,29.2,25.0,29.78,NE,56,3.0,3.0,84,0.00,,,0.00,Wunderground v.1.15,2013-03-01 01:37:00,
2013-02-28 21:42:00,29.3,25.1,29.78,NE,44,3.0,4.0,84,0.00,,,0.00,Wunderground v.1.15,2013-03-01 01:42:00,
2013-02-28 21:47:00,29.4,25.2,29.78,NE,54,3.0,4.0,84,0.00,,,0.00,Wunderground v.1.15,2013-03-01 01:47:00,
2013-02-28 21:52:00,29.5,25.0,29.77,NE,55,4.0,4.0,83,0.00,,,0.00,Wunderground v.1.15,2013-03-01 01:52:00,
2013-02-28 21:57:00,29.6,25.1,29.77,ENE,61,5.0,5.0,83,0.00,,,0.00,Wunderground v.1.15,2013-03-01 01:57:00,
2013-02-28 22:02:00,29.4,25.2,29.76,East,90,4.0,4.0,84,0.00,,,0.00,Wunderground v.1.15,2013-03-01 02:02:00,
2013-02-28 22:07:00,29.2,25.0,29.76,NE,53,3.0,4.0,84,0.00,,,0.00,Wunderground v.1.15,2013-03-01 02:07:00,
2013-02-28 22:12:00,29.0,25.1,29.76,NE,53,3.0,4.0,85,0.00,,,0.00,Wunderground v.1.15,2013-03-01 02:12:00,
2013-02-28 22:17:00,28.9,25.0,29.76,ENE,69,3.0,4.0,85,0.00,,,0.00,Wunderground v.1.15,2013-03-01 02:17:00,
2013-02-28 22:22:00,28.7,24.8,29.76,ENE,71,3.0,5.0,85,0.00,,,0.00,Wunderground v.1.15,2013-03-01 02:22:00,
2013-02-28 22:27:00,28.6,24.7,29.76,NNE,25,4.0,6.0,85,0.00,,,0.00,Wunderground v.1.15,2013-03-01 02:27:00,
2013-02-28 22:32:00,28.5,24.8,29.75,NNE,27,4.0,4.0,86,0.00,,,0.00,Wunderground v.1.15,2013-03-01 02:32:00,
2013-02-28 22:42:00,28.4,24.7,29.75,ENE,67,4.0,7.0,86,0.00,,,0.00,Wunderground v.1.15,2013-03-01 02:42:00,
2013-02-28 22:52:00,28.6,24.7,29.74,ENE,57,6.0,9.0,85,0.00,,,0.00,Wunderground v.1.15,2013-03-01 02:52:00,
2013-02-28 22:57:00,28.6,24.7,29.74,East,101,5.0,9.0,85,0.00,,,0.00,Wunderground v.1.15,2013-03-01 02:57:00,
2013-02-28 23:02:00,28.7,24.5,29.73,NE,40,6.0,6.0,84,0.00,,,0.00,Wunderground v.1.15,2013-03-01 03:02:00,
2013-02-28 23:12:00,28.8,24.6,29.73,NE,52,6.0,6.0,84,0.00,,,0.00,Wunderground v.1.15,2013-03-01 03:12:00,
2013-02-28 23:17:00,28.7,24.5,29.73,ENE,57,5.0,6.0,84,0.00,,,0.00,Wunderground v.1.15,2013-03-01 03:17:00,
2013-02-28 23:22:00,28.4,24.5,29.73,ENE,71,4.0,4.0,85,0.00,,,0.00,Wunderground v.1.15,2013-03-01 03:22:00,
2013-02-28 23:27:00,28.2,24.6,29.73,NE,47,3.0,6.0,86,0.00,,,0.00,Wunderground v.1.15,2013-03-01 03:27:00,
2013-02-28 23:32:00,28.1,24.5,29.72,ENE,62,3.0,4.0,86,0.00,,,0.00,Wunderground v.1.15,2013-03-01 03:32:00,
2013-02-28 23:42:00,28.1,24.2,29.72,East,83,3.0,3.0,85,0.00,,,0.00,Wunderground v.1.15,2013-03-01 03:42:00,
2013-02-28 23:47:00,28.0,24.1,29.72,East,82,4.0,5.0,85,0.00,,,0.00,Wunderground v.1.15,2013-03-01 03:47:00,
2013-02-28 23:52:00,27.9,24.0,29.72,ENE,69,4.0,4.0,85,0.00,,,0.00,Wunderground v.1.15,2013-03-01 03:52:00,
2013-02-28 23:57:00,27.8,23.9,29.72,ENE,57,4.0,4.0,85,0.00,,,0.00,Wunderground v.1.15,2013-03-01 03:57:00,